PDT,Max TemperatureF,Mean TemperatureF,Min TemperatureF,Max Dew PointF,MeanDew PointF,Min DewpointF,Max Humidity, Mean Humidity, Min Humidity, Max Sea Level PressureIn, Mean Sea Level PressureIn, Min Sea Level PressureIn, Max VisibilityMiles, Mean VisibilityMiles, Min VisibilityMiles, Max Wind SpeedMPH, Mean Wind SpeedMPH, Max Gust SpeedMPH,PrecipitationIn, CloudCover, Events, WindDirDegrees
2013-9-1,89,74,59,54,49,41,82,42,18,29.91,29.86,29.82,10,10,10,16,6,20,0.00,5,,205
2013-9-2,77,70,64,64,61,57,94,77,50,29.95,29.90,29.86,10,10,5,9,5,,0.00,6,Rain,161
2013-9-3,84,72,59,59,53,45,94,60,25,29.97,29.92,29.89,10,10,10,12,6,,0.00,1,Rain,179
2013-9-4,86,70,55,55,51,39,94,61,19,30.01,29.95,29.89,10,10,10,9,7,,0.00,0,,173
2013-9-5,86,70,55,55,51,41,94,62,20,29.98,29.94,29.89,10,10,10,10,7,,0.00,0,,164
2013-9-6,89,70,51,54,48,39,88,58,17,29.97,29.91,29.81,10,10,10,14,5,,0.00,0,,331
2013-9-7,95,74,53,48,42,36,77,35,12,29.87,29.82,29.76,10,10,10,8,2,,0.00,0,,283
2013-9-8,102,80,57,50,42,34,72,29,9,29.84,29.77,29.70,10,10,10,12,4,18,0.00,0,,303
2013-9-9,96,78,59,50,46,39,63,33,14,29.77,29.70,29.62,10,10,10,8,3,,0.00,1,,287
2013-9-10,86,72,59,57,54,48,88,58,33,29.86,29.75,29.67,10,10,10,14,7,,0.00,0,,177
2013-9-11,77,65,55,57,55,54,100,81,47,29.97,29.92,29.86,10,10,10,14,7,,0.00,3,,168
2013-9-12,,,,,,,,,,29.96,29.90,29.81,10,10,10,10,6,,0.00,2,,165
2013-9-13,91,78,66,57,56,54,64,45,31,29.86,29.80,29.68,10,10,10,12,5,,0.00,0,,182
2013-9-14,86,72,57,57,55,54,88,60,35,29.78,29.73,29.67,10,10,10,10,6,,0.00,0,,186
2013-9-15,86,70,53,54,51,48,88,51,27,29.82,29.78,29.75,10,10,10,13,8,,0.00,0,,187
2013-9-16,86,70,53,57,53,48,100,56,29,29.87,29.80,29.73,10,10,10,9,6,,0.00,0,,191
2013-9-17,80,68,55,54,51,45,88,57,28,29.86,29.81,29.78,10,10,10,13,7,18,0.00,1,,175
2013-9-18,84,70,57,52,44,37,77,43,19,29.89,29.83,29.78,10,10,10,15,8,20,0.00,1,,325
2013-9-19,89,70,50,48,42,37,71,40,16,29.85,29.80,29.71,10,10,10,7,5,,0.00,0,,159
2013-9-20,82,66,51,57,48,39,82,54,35,29.84,29.78,29.73,10,10,10,18,8,23,0.00,1,,172
2013-9-21,69,63,57,59,57,54,100,84,56,29.85,29.83,29.80,10,9,2,22,6,18,0.00,7,Rain,150
2013-9-22,73,62,50,54,49,45,94,64,36,29.99,29.95,29.92,10,10,10,10,3,,0.00,2,,305
2013-9-23,82,66,50,57,52,50,100,58,34,30.02,29.96,29.90,10,10,10,7,2,,0.00,0,,270
2013-9-24,78,68,55,55,52,48,94,66,34,29.97,29.90,29.83,10,10,10,20,9,23,0.00,1,,174
2013-9-25,71,60,50,50,43,32,94,61,23,29.91,29.86,29.79,10,10,10,14,6,21,0.00,3,,259
2013-9-26,75,63,51,41,38,34,62,42,23,29.95,29.86,29.80,15,10,10,20,14,26,0.00,1,,325
2013-9-27,77,64,50,39,37,32,66,46,19,30.10,30.04,29.97,10,10,10,13,6,,0.00,0,,335
2013-9-28,82,64,46,39,36,32,76,39,17,30.09,30.04,29.97,10,10,10,9,4,,0.00,2,,165
2013-9-29,77,65,53,57,55,52,94,64,47,30.11,30.06,30.03,10,10,10,13,9,18,0.00,4,,198
2013-9-30,77,68,59,59,58,57,94,70,50,30.07,30.00,29.94,10,10,10,9,6,,0.00,4,,189